Regional Weather Roundup
Issued by NWS

Home | Current Version | Previous Version | Text Only | Print | Product List | Glossary On
Versions: 1 2 3 4 5 6 7 8 9 10 11 12 13 14 15 16 17 18 19 20 21 22 23 24 25 26 27 28 29 30 31 32 33 34 35 36 37 38 39 40 41 42 43 44 45 46 47 48 49 50
000
ASUS43 KDTX 261610
RWRMI
MICHIGAN HOURLY REGIONAL WEATHER ROUNDUP
NATIONAL WEATHER SERVICE DETROIT/PONTIAC MI
1100 AM EST FRI DEC 26 2014

NOTE: "FAIR" INDICATES FEW OR NO CLOUDS BELOW 12,000 FEET WITH NO
SIGNIFICANT WEATHER AND/OR OBSTRUCTION TO VISIBILITY.

MIZ047>049-052>055-059>063-066>070-074>076-081>083-261700-
SOUTHEAST LOWER MICHIGAN

CITY           SKY/WX    TMP DP  RH WIND       PRES   REMARKS
ADRIAN         SUNNY     38  33  82 SW12      30.15R
ALMA           MOSUNNY   37  33  88 SW7       30.07S
ANN ARBOR      SUNNY     39  33  79 SW10      30.13S
BAD AXE        CLOUDY    37  35  91 S8        30.10S
DETROIT CITY   SUNNY     43  33  68 SW10      30.15R
DETROIT        MOSUNNY   41  34  76 S12       30.15R
FLINT          MOSUNNY   43  34  70 SW15      30.10F
GROSSE ILE     SUNNY     39  36  87 SW10      30.14R
HILLSDALE      SUNNY     39  36  86 SW10      30.11S
HOWELL         MOSUNNY   39  34  82 S10       30.10S

CITY           SKY/WX    TMP DP  RH WIND       PRES   REMARKS
JACKSON        SUNNY     41  33  73 SW12      30.10S
LAMBERTVILLE   SUNNY     43  34  70 SW10      30.16R
LANSING        MOSUNNY   41  33  73 S14       30.09S
LAPEER         NOT AVBL
MASON          SUNNY     39  32  77 SW10      30.10S
MONROE         SUNNY     43  36  75 SW10G16   30.14R
MT. CLEMENS    MOSUNNY   42  33  69 SW13      30.11S
PONTIAC        PTSUNNY   38  32  79 SW12      30.11S
PORT HOPE        N/A     37  32  82 SW7       30.07S
PORT HURON     PTSUNNY   39  34  81 S10       30.13F
TRI CITIES     PTSUNNY   40  33  76 S10       30.08S
YPSILANTI      SUNNY     42  33  70 SW17      30.14R
$$
MIZ043>046-050>051-056>058-064>065-071>073-077>080-261700-
SOUTHWEST LOWER MICHIGAN

CITY           SKY/WX    TMP DP  RH WIND       PRES   REMARKS
BATTLE CREEK   SUNNY     41  34  76 SW14      30.09S
BENTON HARBOR  SUNNY     41  35  79 S7G18     30.08R
BIG RAPIDS     CLOUDY    37  35  95 S7        30.03R
COLDWATER      SUNNY     40  34  78 SW10G16   30.11S
HOLLAND        MOSUNNY   45  35  68 SW17G26   30.07R
GRAND RAPIDS   MOSUNNY   42  34  73 S13       30.07R
KALAMAZOO      SUNNY     41  34  76 S12       30.09S
MARSHALL       SUNNY     39  33  78 SW12G17   30.09F
MUSKEGON       PTSUNNY   42  36  79 S13       30.05R
$$
MIZ016>042-261700-
NORTHERN LOWER MICHIGAN

CITY           SKY/WX    TMP DP  RH WIND       PRES   REMARKS
ALPENA         CLOUDY    36  32  85 S8        30.05F
BEAVER ISLAND  CLOUDY    39  37  95 S3        30.00R
BELLAIRE       CLOUDY    39  34  83 S3        30.02R
CADILLAC       CLOUDY    34  33  94 S5        30.00R
CHARLEVOIX     CLOUDY    38  35  89 S7        30.03S
FRANKFORT      CLOUDY    38  36  91 S6        30.00R
GAYLORD        CLOUDY    33  33 100 S8        30.00S FOG
GRAYLING       CLOUDY    36  34  94 S5        30.02S
HARBOR SPRINGS CLOUDY    38  34  84 S3        30.00F
HOUGHTON LAKE  CLOUDY    34  32  92 S8        30.03S
MANISTEE       MOSUNNY   39  34  81 SE3       30.01R
OSCODA         CLOUDY    37  33  85 SW10      30.06S
PELLSTON       CLOUDY    39  34  82 S5        30.01R
TRAVERSE CITY  CLOUDY    40  35  83 VRB5      30.00S
$$
MIZ007>008-015-261700-
EASTERN UPPER MICHIGAN

CITY           SKY/WX    TMP DP  RH WIND       PRES   REMARKS
KINROSS        CLOUDY    36  36 100 CALM      30.00R
MACKINAC ISLAN CLOUDY    37  37  97 S5        30.00R
NEWBERRY       CLOUDY    32  32 100 W5        29.99R FOG
S. S. MARIE    CLOUDY    34  32  92 E3        30.00R FOG
$$
MIZ004>006-011>014-085-261700-
CENTRAL UPPER MICHIGAN

CITY           SKY/WX    TMP DP  RH WIND       PRES   REMARKS
MANISTIQUE     CLOUDY    33  33 100 N3        29.99R FOG
ESCANABA       CLOUDY    34  30  86 N3        29.99R
MENOMINEE      CLOUDY    34  32  93 CALM      29.98R
SAWYER-GWINN   CLOUDY    28  28 100 CALM      29.97R FOG
$$
MIZ001>003-009>011-084-261700-
WESTERN UPPER MICHIGAN

CITY           SKY/WX    TMP DP  RH WIND       PRES   REMARKS
IRON MOUNTAIN  CLOUDY    32  29  88 N5        29.96R
HOUGHTON       CLOUDY    31  29  92 NW5       29.97R
COPPER HARBOR    N/A     36  28  73 NE9       29.98S
IRONWOOD       CLOUDY    30  28  93 CALM      29.97R
$$

ABBREVIATIONS USED IN REMARKS
   TC - TEMPERATURE IN CELSIUS
  WCI - WIND CHILL INDEX
   HX - HEAT INDEX
  VSB - VISIBILITY



USA.gov is the U.S. government's official web portal to all federal, state and local government web resources and services.